Mannheim-City Airport EDFM

Flugplatz Daten

Name: Mannheim-City Airport

Ident: EDFM

Lat: 49,47305679

Long: 8,514166832

Platzhöhe: 308 ft

IataCode: MHG

City: Mannheim

Metar

2022/08/13 21:50
EDFM 132150Z 06003KT CAVOK 23/08 Q1013

Taf

2012/03/06 06:30
TAF EDFM 060519Z 0606/0621 15004KT 9999 FEW040
Gewünschte Webcam nicht vorhanden? Dann fügen Sie eine hinzu. Sie wird dann so schnell wie möglich freigeschaltet
Url: Title: